Location: Berg
(47.2344°N, 9.5296°E)
Time: 22:42:43
(UTC+00:00)

Nauka - Pass Details

Date: 23 September 2021
Orbit: 417 x 423 km, 51.6° (Epoch: 16 October)

Event Time Altitude Azimuth Distance (km) Brightness Sun altitude
Rises 18:02:22 0° 259° (WSW) 2,358 ? -8.4°
Reaches altitude 10° 18:04:29 10° 264° (W) 1,496 ? -8.8°
Maximum altitude 18:07:47 54° 343° (NNW) 513 ? -9.3°
Drops below altitude 10° 18:11:06 10° 62° (ENE) 1,504 ? -9.9°
Enters shadow 18:11:12 - 63° (ENE) 1,544 ? -9.9°
